[[{"header":{"parameterUnit":"m.s-1","parameterCategory":1,"la1":30.2991,"la2":30.254,"lo1":-89.0895,"lo2":-89.0444,"dx":0.0017,"dy":0.0017,"nx":28,"ny":28,"refTime":"2023-02-06T15:00:00:Z","depth":0,"parameterNumber":2,"parameterNumberName":"U-component_of_WINDS"},"data":[0,0,0,0,0,0,0,0,0,0,0,0,0,0,0,0,0,0,0,0,0,0,0,0,0,0,0,0,0,0,0,0,0,0,0,0,0,0,0,0,0,0,0,0,0,0,0,0,0,0,0,0,0,0,0,0,0,0,-4.1507,-4.1508,0,-4.1583,-4.1584,-4.1584,-4.1556,-4.1554,-4.1552,-4.1551,-4.1624,-4.1628,-4.1631,0,0,0,0,0,0,0,0,0,0,0,0,0,-4.1335,-4.1338,-4.1507,-4.1508,-4.1509,-4.1583,-4.1584,-4.1585,-4.1556,-4.1554,-4.1552,-4.155,-4.1623,-4.1627,-4.1632,0,0,0,0,0,0,0,0,0,0,0,0,0,-4.141,-4.1339,-4.1507,-4.1504,-4.1504,-4.1582,-4.1584,-4.1585,-4.1557,-4.1554,-4.1551,-4.1549,-4.1622,-4.1627,-4.1632,-4.1717,0,0,-4.1649,-4.1651,0,0,0,0,0,0,0,0,-4.1405,-4.1416,-4.1503,-4.1504,-4.1505,-4.1557,-4.155,-4.1629,-4.1557,-4.1537,-4.1551,-4.1548,-4.1604,-4.1611,-4.163,-4.172,-4.1723,-4.1649,-4.1652,-4.1655,-4.1656,0,0,0,0,0,0,0,-4.14,-4.1413,-4.1537,-4.1504,-4.1505,-4.1497,-4.1505,-4.1565,-4.1584,-4.1538,-4.1536,-4.1546,-4.1604,-4.1625,-4.1632,-4.1725,-4.1649,-4.1654,-4.1657,-4.1659,-4.1887,-4.189,0,0,0,0,0,0,-4.1395,-4.1408,-4.1534,-4.1539,-4.1448,-4.1503,-4.1511,-4.1543,-4.1583,-4.1587,-4.1548,-4.1544,-4.1617,-4.1626,-4.1634,-4.1735,-4.1655,-4.166,-4.1663,-4.1884,-4.1887,-4.1891,0,0,0,0,0,0,-4.1392,-4.1407,-4.1531,-4.1473,-4.1489,-4.1508,-4.1544,-4.1546,-4.1567,-4.159,-4.1593,-4.1567,-4.1616,-4.1627,-4.1697,-4.1737,-4.1662,-4.1667,-4.1881,-4.1885,-4.1889,-4.1937,0,0,0,0,0,0,-4.1387,-4.1406,-4.1439,-4.1474,-4.1492,-4.1594,-4.1547,-4.1549,-4.1577,-4.1573,-4.1609,-4.1612,-4.1614,-4.1689,-4.1702,-4.1743,-4.1671,-4.1877,-4.1883,-4.1888,-4.1932,-4.1943,-4.1952,0,0,0,0,0,-4.1381,-4.1449,-4.1441,-4.1456,-4.1534,-4.1596,-4.1606,-4.1608,-4.158,-4.1613,-4.1628,-4.1611,-4.1731,-4.1696,-4.1711,-4.1754,-4.1874,-4.1881,-4.1887,-4.1928,-4.1941,-4.1951,0,0,0,0,0,0,-4.1416,-4.1453,-4.1445,-4.1526,-4.1558,-4.1591,-4.1632,-4.1622,-4.1661,-4.1656,-4.1656,-4.1665,-4.1736,-4.1752,-4.1713,-4.1838,-4.1798,-4.1808,-4.1824,-4.1837,-4.1846,-4.184,-4.1675,0,0,0,0,0,-4.1433,-4.1482,-4.1512,-4.1581,-4.1597,-4.1612,-4.1639,-4.1639,-4.1671,-4.1684,-4.1704,-4.1736,-4.178,-4.181,-4.1852,-4.1935,-4.1942,-4.1972,-4.1982,-4.199,-4.1997,-4.2041,-4.2055,-4.1912,-4.1912,-4.1911,0,0,-4.1469,-4.1496,-4.1526,-4.1588,-4.1613,-4.1662,-4.1624,-4.1677,-4.1713,-4.1692,-4.1759,-4.1775,-4.181,-4.1887,-4.1921,-4.1902,-4.2039,-4.1998,-4.2004,-4.2007,-4.2049,-4.2063,-4.2075,-4.1916,-4.1915,-4.1914,0,0,-4.1559,-4.1585,-4.1645,-4.1671,-4.1709,-4.1719,-4.1734,-4.1769,-4.1779,-4.1847,-4.1832,-4.1874,-4.1951,-4.1977,-4.2,-4.2101,-4.2086,-4.2115,-4.2165,-4.2208,-4.2219,-4.2229,-4.2263,-4.2276,-4.2123,-4.2123,-4.2123,0,-4.1598,-4.1673,-4.1677,-4.1732,-4.1759,-4.1744,-4.1804,-4.1829,-4.1879,-4.1897,-4.1876,-4.1973,-4.1995,-4.2077,-4.2102,-4.2121,-4.2137,-4.2109,-4.2217,-4.2227,-4.2236,-4.2269,-4.2282,-4.2126,-4.2126,-4.2125,-4.2125,0,-4.1718,-4.177,-4.1814,-4.1864,-4.1896,-4.1953,-4.1965,-4.1997,-4.1994,-4.2006,-4.2075,-4.2102,-4.2149,-4.2169,-4.2166,-4.225,-4.2237,-4.2217,-4.2177,-4.2253,-4.2284,-4.2296,-4.213,-4.2129,-4.2128,-4.2128,0,0,-4.183,-4.1883,-4.1898,-4.1921,-4.1963,-4.2002,-4.2059,-4.2106,-4.2133,-4.2169,-4.2215,-4.2281,-4.2263,-4.2289,-4.2289,-4.2327,-4.2404,-4.2302,-4.2303,-4.2318,-4.2496,-4.251,-4.2524,-4.2395,-4.2398,-4.24,-4.2493,0,-4.1922,-4.2022,-4.2028,-4.2117,-4.2165,-4.2152,-4.2201,-4.2231,-4.2244,-4.2285,-4.2299,-4.2346,-4.2319,-4.2334,-4.2371,-4.2386,-4.2439,-4.238,-4.2436,-4.2438,-4.2425,-4.254,-4.2555,-4.2641,-4.2505,-4.2507,-4.2508,0,-4.2042,-4.2082,-4.2177,-4.2213,-4.2233,-4.2277,-4.2321,-4.2361,-4.2395,-4.2401,-4.2432,-4.2426,-4.2483,-4.2443,-4.252,-4.248,-4.2504,-4.2515,-4.2518,-4.2521,-4.2476,-4.2545,-4.2669,-4.2681,-4.2528,-4.2526,-4.2525,0,-4.2112,-4.219,-4.2257,-4.2276,-4.232,-4.2351,-4.237,-4.2402,-4.243,-4.2469,-4.2487,-4.2531,-4.2555,-4.2589,-4.2595,-4.2566,-4.2672,-4.2633,-4.2677,-4.2677,-4.2698,-4.2696,-4.2825,-4.2717,-4.2717,-4.2717,-4.2716,0,-4.2212,-4.227,-4.2289,-4.2329,-4.2394,-4.24,-4.2463,-4.248,-4.2509,-4.2552,-4.2544,-4.2584,-4.2592,-4.2633,-4.2639,-4.2701,-4.2712,-4.2718,-4.2718,-4.2718,-4.2716,-4.2731,-4.2724,-4.272,-4.2719,-4.2719,-4.2718,0,-4.23,-4.2315,-4.2386,-4.2422,-4.2433,-4.2478,-4.2508,-4.2547,-4.256,-4.2614,-4.2627,-4.2647,-4.2695,-4.2706,-4.2764,-4.2767,-4.284,-4.2836,-4.2829,-4.2828,-4.2871,-4.2866,-4.3012,-4.3031,-4.2912,-4.2914,-4.2915,0,-4.2362,-4.2406,-4.2448,-4.2477,-4.2498,-4.2544,-4.2573,-4.2581,-4.2612,-4.2655,-4.2688,-4.2736,-4.2775,-4.2853,-4.2871,-4.2915,-4.291,-4.2959,-4.2916,-4.2914,-4.2908,-4.2905,-4.2908,-4.2966,-4.2967,-4.2968,-4.2969,0,-4.247,-4.2475,-4.2518,-4.2564,-4.26,-4.2636,-4.267,-4.2694,-4.2707,-4.2741,-4.2792,-4.2822,-4.2881,-4.2928,-4.2973,-4.2991,-4.2982,-4.2982,-4.2994,-4.2993,-4.2986,-4.2988,-4.2848,-4.2978,-4.2977,-4.2977,-4.2976,-4.2976,-4.2545,-4.2584,-4.2619,-4.2667,-4.2694,-4.2727,-4.2765,-4.2783,-4.2825,-4.2875,-4.2877,-4.2932,-4.2964,-4.3023,-4.3045,-4.3086,-4.3071,-4.3089,-4.3093,-4.3097,-4.31,-4.2982,-4.3095,-4.3095,-4.3094,-4.3094,-4.3094,0,-4.265,-4.2673,-4.2717,-4.2766,-4.2804,-4.2794,-4.2832,-4.2864,-4.2912,-4.2945,-4.2983,-4.3041,-4.3087,-4.311,-4.3155,-4.3184,-4.3181,-4.3196,-4.3192,-4.3196,-4.3112,-4.3096,-4.3197,-4.3197,-4.3197,-4.3197,-4.3197,-4.3197,-4.271,-4.2774,-4.2784,-4.2862,-4.2884,-4.2938,-4.296,-4.299,-4.3015,-4.308,-4.3119,-4.3134,-4.3163,-4.321,-4.3252,-4.3257,-4.3273,-4.329,-4.3293,-4.3213,-4.3202,-4.3192,-4.3177,-4.3294,-4.3294,-4.3373,-4.3374,-4.3374]},{"header":{"parameterUnit":"m.s-1","parameterCategory":1,"la1":30.2991,"la2":30.254,"lo1":-89.0895,"lo2":-89.0444,"dx":0.0017,"dy":0.0017,"nx":28,"ny":28,"refTime":"2023-02-06T15:00:00:Z","depth":0,"parameterNumber":3,"parameterNumberName":"V-component_of_WINDS"},"data":[0,0,0,0,0,0,0,0,0,0,0,0,0,0,0,0,0,0,0,0,0,0,0,0,0,0,0,0,0,0,0,0,0,0,0,0,0,0,0,0,0,0,0,0,0,0,0,0,0,0,0,0,0,0,0,0,0,0,2.2238,2.2239,0,2.2305,2.2306,2.2306,2.2323,2.2322,2.2322,2.2321,2.2386,2.2388,2.2391,0,0,0,0,0,0,0,0,0,0,0,0,0,2.2122,2.2124,2.2238,2.2239,2.224,2.2305,2.2306,2.2307,2.2323,2.2322,2.2322,2.2321,2.2386,2.2388,2.2391,0,0,0,0,0,0,0,0,0,0,0,0,0,2.2179,2.2125,2.2238,2.2256,2.2258,2.2305,2.2306,2.2307,2.2323,2.2322,2.2322,2.2321,2.2385,2.2388,2.2391,2.2424,0,0,2.2401,2.2402,0,0,0,0,0,0,0,0,2.2176,2.2183,2.2252,2.2255,2.2257,2.2305,2.2289,2.2346,2.2323,2.2298,2.2321,2.2321,2.236,2.2365,2.2379,2.2427,2.243,2.2401,2.2403,2.2404,2.2405,0,0,0,0,0,0,0,2.2172,2.218,2.2264,2.2253,2.2256,2.226,2.2267,2.23,2.2331,2.23,2.2302,2.2309,2.2361,2.2376,2.238,2.2431,2.2401,2.2404,2.2406,2.2407,2.2511,2.2512,0,0,0,0,0,0,2.2165,2.2177,2.2262,2.2266,2.2214,2.2262,2.2271,2.229,2.2331,2.2337,2.231,2.231,2.237,2.2377,2.2383,2.2425,2.2404,2.2407,2.2409,2.251,2.2511,2.2512,0,0,0,0,0,0,2.2163,2.2173,2.226,2.2222,2.2234,2.2265,2.2287,2.2292,2.2307,2.2339,2.2344,2.2319,2.237,2.2378,2.2414,2.2428,2.2409,2.2412,2.2509,2.251,2.2512,2.251,0,0,0,0,0,0,2.2159,2.2172,2.2185,2.2222,2.2235,2.2291,2.2288,2.2294,2.2313,2.2313,2.2349,2.2354,2.237,2.2409,2.2417,2.2432,2.2414,2.2508,2.251,2.2511,2.2509,2.2511,2.2513,0,0,0,0,0,2.2155,2.218,2.2185,2.2195,2.2253,2.2291,2.2299,2.2318,2.2314,2.2327,2.2348,2.2353,2.2425,2.2413,2.2422,2.2438,2.2507,2.2509,2.2511,2.2508,2.251,2.2513,0,0,0,0,0,0,2.2142,2.2185,2.2191,2.223,2.2257,2.2294,2.2311,2.2319,2.2347,2.2347,2.2368,2.2376,2.2411,2.2427,2.2414,2.2472,2.2466,2.247,2.246,2.2463,2.2465,2.2461,2.2417,0,0,0,0,0,2.2143,2.2172,2.2208,2.2239,2.2252,2.2279,2.2297,2.231,2.2338,2.2349,2.2372,2.2399,2.2428,2.2446,2.2474,2.2511,2.252,2.2526,2.2528,2.253,2.2533,2.2556,2.2559,2.2518,2.2518,2.2518,0,0,2.2147,2.2174,2.2191,2.2237,2.2259,2.2288,2.2289,2.2319,2.2341,2.2353,2.239,2.2408,2.2439,2.2476,2.2493,2.2491,2.2546,2.2532,2.2533,2.2536,2.2558,2.2562,2.2565,2.2519,2.2519,2.2519,0,0,2.2168,2.2191,2.222,2.2244,2.2278,2.2297,2.2304,2.234,2.2353,2.239,2.2401,2.2426,2.2475,2.2497,2.2515,2.2547,2.2554,2.2555,2.2566,2.2587,2.2591,2.2594,2.2607,2.2611,2.2558,2.2558,2.2558,0,2.2168,2.2213,2.2234,2.2265,2.2285,2.2299,2.2329,2.235,2.2391,2.2405,2.2402,2.2465,2.2486,2.253,2.2538,2.2551,2.256,2.2552,2.2589,2.2592,2.2595,2.2608,2.2612,2.2558,2.2558,2.2558,2.2558,0,2.2212,2.2243,2.2262,2.2304,2.2326,2.2356,2.2381,2.2401,2.2412,2.243,2.2469,2.2495,2.253,2.2541,2.2551,2.2587,2.2584,2.2585,2.2579,2.2599,2.2611,2.2616,2.2559,2.2559,2.2559,2.2559,0,0,2.2226,2.2281,2.2288,2.2308,2.2348,2.2372,2.2403,2.2438,2.2456,2.2484,2.2511,2.2552,2.2554,2.2574,2.2586,2.2605,2.2631,2.2603,2.2604,2.2609,2.2674,2.2674,2.268,2.2635,2.2636,2.2637,2.2672,0,2.2254,2.2311,2.2331,2.2378,2.2407,2.2422,2.2449,2.2476,2.2495,2.2522,2.2542,2.2572,2.257,2.2583,2.2602,2.2624,2.2644,2.2621,2.266,2.2662,2.2654,2.2686,2.2686,2.2718,2.2676,2.2677,2.2678,0,2.2293,2.2325,2.2375,2.2414,2.2427,2.2451,2.2486,2.2512,2.2543,2.2555,2.2579,2.2591,2.2623,2.2615,2.2661,2.2644,2.2662,2.2674,2.2676,2.2681,2.2672,2.2693,2.2728,2.2733,2.2685,2.2685,2.2684,0,2.2301,2.2355,2.2393,2.241,2.2455,2.2472,2.2491,2.2522,2.2543,2.2573,2.2587,2.262,2.2638,2.2664,2.2684,2.2676,2.2728,2.2721,2.274,2.2739,2.2751,2.275,2.279,2.2759,2.2759,2.2759,2.2759,0,2.2331,2.2361,2.2398,2.2421,2.2456,2.2479,2.2512,2.2533,2.2561,2.2588,2.2601,2.2627,2.2651,2.268,2.2696,2.2732,2.2739,2.275,2.2754,2.275,2.2749,2.2762,2.2761,2.276,2.276,2.276,2.276,0,2.2345,2.2371,2.2413,2.2454,2.2465,2.2489,2.2523,2.2546,2.2566,2.26,2.2609,2.264,2.2674,2.2697,2.2739,2.275,2.279,2.2793,2.278,2.2783,2.2801,2.2799,2.2852,2.2861,2.2822,2.2823,2.2823,0,2.2363,2.2387,2.2431,2.2452,2.2472,2.2503,2.2526,2.2549,2.2571,2.261,2.2629,2.2664,2.2694,2.2748,2.2773,2.2807,2.2811,2.2828,2.2816,2.2812,2.2814,2.2813,2.2816,2.283,2.283,2.283,2.283,0,2.2393,2.2405,2.2437,2.2474,2.25,2.253,2.2559,2.2575,2.2604,2.2628,2.2664,2.2687,2.2733,2.2768,2.2804,2.2824,2.2832,2.2834,2.284,2.2837,2.2829,2.2835,2.2787,2.2833,2.2832,2.2832,2.2832,2.2832,2.2411,2.2434,2.2469,2.2505,2.253,2.2558,2.2583,2.2606,2.2637,2.2677,2.2689,2.2727,2.2759,2.2809,2.2829,2.2859,2.2857,2.2866,2.2868,2.287,2.2872,2.2823,2.2865,2.2865,2.2865,2.2865,2.2865,0,2.2443,2.2467,2.2499,2.2542,2.257,2.2577,2.261,2.2633,2.2667,2.2697,2.2727,2.2769,2.2804,2.2833,2.2869,2.2887,2.2892,2.2896,2.2896,2.29,2.287,2.2862,2.2892,2.2892,2.2892,2.2892,2.2892,2.2892,2.2463,2.2503,2.2519,2.2573,2.2596,2.2635,2.2654,2.268,2.2704,2.2752,2.2782,2.2801,2.283,2.2869,2.2901,2.2909,2.2922,2.2925,2.2934,2.2905,2.2902,2.2899,2.2892,2.2927,2.2927,2.2962,2.2962,2.2962]}]]